Time,TemperatureF,DewpointF,PressureIn,WindDirection,WindDirectionDegrees,WindSpeedMPH,WindSpeedGustMPH,Humidity,HourlyPrecipIn,Conditions,Clouds,dailyrainin,SoftwareType,DateUTC
2013-01-12 00:03:00,62.6,62.0,30.07,ESE,109,0.0,1.0,98,0.10,,,0.00,weatherlink.com 1.10,2013-01-12 05:03:00,
2013-01-12 00:17:00,62.7,62.0,30.07,ESE,110,0.0,1.0,98,0.05,,,0.00,weatherlink.com 1.10,2013-01-12 05:17:00,
2013-01-12 00:32:00,62.8,62.0,30.07,ESE,109,0.0,1.0,98,0.01,,,0.00,weatherlink.com 1.10,2013-01-12 05:32:00,
2013-01-12 00:48:00,62.9,62.0,30.07,West,261,0.0,3.0,98,0.00,,,0.00,weatherlink.com 1.10,2013-01-12 05:48:00,
2013-01-12 01:03:00,63.0,63.0,30.07,West,271,0.0,2.0,98,0.00,,,0.00,weatherlink.com 1.10,2013-01-12 06:03:00,
2013-01-12 01:18:00,63.0,63.0,30.07,WNW,301,0.0,2.0,98,0.00,,,0.00,weatherlink.com 1.10,2013-01-12 06:18:00,
2013-01-12 01:33:00,63.2,63.0,30.07,ESE,111,0.0,1.0,98,0.00,,,0.00,weatherlink.com 1.10,2013-01-12 06:33:00,
2013-01-12 01:48:00,63.2,63.0,30.07,ESE,117,0.0,1.0,98,0.00,,,0.00,weatherlink.com 1.10,2013-01-12 06:48:00,
2013-01-12 02:03:00,63.2,63.0,30.07,East,89,0.0,0.0,98,0.00,,,0.00,weatherlink.com 1.10,2013-01-12 07:03:00,
2013-01-12 02:18:00,63.2,63.0,30.07,WNW,295,0.0,1.0,98,0.00,,,0.00,weatherlink.com 1.10,2013-01-12 07:18:00,
2013-01-12 02:33:00,63.3,63.0,30.07,WNW,298,0.0,0.0,97,0.00,,,0.00,weatherlink.com 1.10,2013-01-12 07:33:00,
2013-01-12 02:48:00,63.3,63.0,30.08,WNW,297,0.0,1.0,98,0.01,,,0.01,weatherlink.com 1.10,2013-01-12 07:48:00,
2013-01-12 03:03:00,63.4,63.0,30.08,ESE,107,0.0,1.0,98,0.01,,,0.01,weatherlink.com 1.10,2013-01-12 08:03:00,
2013-01-12 03:18:00,63.4,63.0,30.08,East,101,0.0,1.0,97,0.01,,,0.01,weatherlink.com 1.10,2013-01-12 08:18:00,
2013-01-12 03:33:00,63.4,63.0,30.08,SE,141,0.0,1.0,98,0.01,,,0.01,weatherlink.com 1.10,2013-01-12 08:33:00,
2013-01-12 03:48:00,63.4,63.0,30.07,ESE,120,0.0,1.0,97,0.00,,,0.01,weatherlink.com 1.10,2013-01-12 08:48:00,
2013-01-12 04:03:00,63.1,62.0,30.07,ESE,120,0.0,0.0,97,0.00,,,0.01,weatherlink.com 1.10,2013-01-12 09:03:00,
2013-01-12 04:18:00,62.8,62.0,30.07,ESE,120,0.0,0.0,97,0.00,,,0.01,weatherlink.com 1.10,2013-01-12 09:18:00,
2013-01-12 04:33:00,62.4,62.0,30.07,South,176,0.0,0.0,97,0.00,,,0.01,weatherlink.com 1.10,2013-01-12 09:33:00,
2013-01-12 04:48:00,62.4,62.0,30.06,South,176,0.0,0.0,98,0.00,,,0.01,weatherlink.com 1.10,2013-01-12 09:48:00,
2013-01-12 05:03:00,62.4,62.0,30.06,SSE,155,0.0,0.0,98,0.00,,,0.01,weatherlink.com 1.10,2013-01-12 10:03:00,
2013-01-12 05:18:00,62.5,62.0,30.05,ESE,110,0.0,0.0,98,0.00,,,0.01,weatherlink.com 1.10,2013-01-12 10:18:00,
2013-01-12 05:33:00,62.4,62.0,30.05,ESE,110,0.0,0.0,98,0.00,,,0.01,weatherlink.com 1.10,2013-01-12 10:33:00,
2013-01-12 05:48:00,62.6,62.0,30.06,West,261,0.0,1.0,98,0.00,,,0.01,weatherlink.com 1.10,2013-01-12 10:48:00,
2013-01-12 06:03:00,62.6,62.0,30.06,SE,139,0.0,0.0,98,0.00,,,0.01,weatherlink.com 1.10,2013-01-12 11:03:00,
2013-01-12 06:18:00,62.8,62.0,30.06,SE,139,0.0,1.0,98,0.00,,,0.01,weatherlink.com 1.10,2013-01-12 11:18:00,
2013-01-12 06:33:00,62.8,62.0,30.07,SE,139,0.0,0.0,98,0.00,,,0.01,weatherlink.com 1.10,2013-01-12 11:33:00,
2013-01-12 06:48:00,62.7,62.0,30.07,ESE,107,0.0,1.0,98,0.02,,,0.03,weatherlink.com 1.10,2013-01-12 11:48:00,
2013-01-12 07:03:00,62.4,62.0,30.06,ESE,107,0.0,0.0,98,0.02,,,0.03,weatherlink.com 1.10,2013-01-12 12:03:00,
2013-01-12 07:19:00,62.4,62.0,30.08,ESE,107,0.0,0.0,98,0.02,,,0.03,weatherlink.com 1.10,2013-01-12 12:19:00,
2013-01-12 07:33:00,62.5,62.0,30.08,ESE,107,0.0,0.0,98,0.02,,,0.03,weatherlink.com 1.10,2013-01-12 12:33:00,
2013-01-12 07:48:00,62.3,62.0,30.08,ESE,107,0.0,0.0,98,0.00,,,0.03,weatherlink.com 1.10,2013-01-12 12:48:00,
2013-01-12 08:03:00,62.3,62.0,30.07,ESE,107,0.0,0.0,98,0.00,,,0.03,weatherlink.com 1.10,2013-01-12 13:03:00,
2013-01-12 08:18:00,62.0,62.0,30.09,ESE,107,0.0,0.0,98,0.00,,,0.03,weatherlink.com 1.10,2013-01-12 13:18:00,
2013-01-12 08:33:00,62.1,62.0,30.10,ESE,107,0.0,0.0,98,0.00,,,0.03,weatherlink.com 1.10,2013-01-12 13:33:00,
2013-01-12 08:48:00,62.7,62.0,30.10,SE,129,0.0,1.0,98,0.00,,,0.03,weatherlink.com 1.10,2013-01-12 13:48:00,
2013-01-12 09:03:00,63.0,63.0,30.10,SE,129,0.0,0.0,99,0.00,,,0.03,weatherlink.com 1.10,2013-01-12 14:03:00,
2013-01-12 09:18:00,63.3,63.0,30.10,SE,129,0.0,0.0,99,0.00,,,0.03,weatherlink.com 1.10,2013-01-12 14:18:00,
2013-01-12 09:33:00,63.6,63.0,30.10,SE,129,0.0,1.0,99,0.00,,,0.03,weatherlink.com 1.10,2013-01-12 14:33:00,
2013-01-12 09:48:00,63.9,64.0,30.10,WNW,293,0.0,0.0,99,0.00,,,0.03,weatherlink.com 1.10,2013-01-12 14:48:00,
2013-01-12 10:03:00,64.0,64.0,30.10,WNW,294,0.0,1.0,98,0.01,,,0.04,weatherlink.com 1.10,2013-01-12 15:03:00,
2013-01-12 10:18:00,63.9,63.0,30.10,ESE,106,1.0,2.0,98,0.01,,,0.04,weatherlink.com 1.10,2013-01-12 15:18:00,
2013-01-12 10:33:00,64.1,64.0,30.10,SE,139,0.0,2.0,98,0.01,,,0.04,weatherlink.com 1.10,2013-01-12 15:33:00,
2013-01-12 10:48:00,64.3,64.0,30.10,SE,129,0.0,2.0,97,0.01,,,0.04,weatherlink.com 1.10,2013-01-12 15:48:00,
2013-01-12 11:03:00,64.3,64.0,30.10,SE,141,0.0,2.0,97,0.00,,,0.04,weatherlink.com 1.10,2013-01-12 16:03:00,
2013-01-12 11:18:00,64.5,64.0,30.09,East,83,1.0,3.0,97,0.00,,,0.04,weatherlink.com 1.10,2013-01-12 16:18:00,
2013-01-12 11:33:00,64.7,64.0,30.08,ESE,122,0.0,3.0,97,0.00,,,0.04,weatherlink.com 1.10,2013-01-12 16:33:00,
2013-01-12 11:48:00,64.8,64.0,30.08,SSE,148,0.0,1.0,97,0.00,,,0.04,weatherlink.com 1.10,2013-01-12 16:48:00,
2013-01-12 12:03:00,65.2,64.0,30.07,ESE,106,1.0,3.0,96,0.00,,,0.04,weatherlink.com 1.10,2013-01-12 17:03:00,
2013-01-12 12:18:00,65.3,64.0,30.07,ESE,122,0.0,2.0,96,0.00,,,0.04,weatherlink.com 1.10,2013-01-12 17:18:00,
2013-01-12 12:33:00,65.6,65.0,30.06,ESE,105,0.0,1.0,96,0.00,,,0.04,weatherlink.com 1.10,2013-01-12 17:33:00,
2013-01-12 12:48:00,66.3,65.0,30.06,North,357,0.0,1.0,96,0.00,,,0.04,weatherlink.com 1.10,2013-01-12 17:48:00,
2013-01-12 13:03:00,66.6,65.0,30.06,ESE,115,0.0,3.0,94,0.00,,,0.04,weatherlink.com 1.10,2013-01-12 18:03:00,
2013-01-12 13:18:00,66.8,65.0,30.05,ESE,104,0.0,2.0,94,0.00,,,0.04,weatherlink.com 1.10,2013-01-12 18:18:00,
2013-01-12 13:33:00,67.1,65.0,30.05,ESE,116,0.0,3.0,93,0.00,,,0.04,weatherlink.com 1.10,2013-01-12 18:33:00,
2013-01-12 13:48:00,68.7,66.0,30.04,ESE,117,0.0,3.0,91,0.00,,,0.04,weatherlink.com 1.10,2013-01-12 18:48:00,
2013-01-12 14:03:00,69.1,66.0,30.04,ESE,113,3.0,4.0,89,0.00,,,0.04,weatherlink.com 1.10,2013-01-12 19:03:00,
2013-01-12 14:18:00,69.0,65.0,30.03,ESE,114,1.0,3.0,88,0.00,,,0.04,weatherlink.com 1.10,2013-01-12 19:18:00,
2013-01-12 14:34:00,69.2,66.0,30.03,East,95,0.0,2.0,88,0.00,,,0.04,weatherlink.com 1.10,2013-01-12 19:34:00,
2013-01-12 14:49:00,69.4,65.0,30.03,ESE,116,2.0,4.0,86,0.00,,,0.04,weatherlink.com 1.10,2013-01-12 19:49:00,
2013-01-12 15:04:00,69.7,66.0,30.02,SE,125,0.0,3.0,87,0.00,,,0.04,weatherlink.com 1.10,2013-01-12 20:04:00,
2013-01-12 15:19:00,69.6,65.0,30.03,East,87,0.0,4.0,84,0.00,,,0.04,weatherlink.com 1.10,2013-01-12 20:19:00,
2013-01-12 15:34:00,69.3,64.0,30.02,ESE,115,0.0,3.0,84,0.00,,,0.04,weatherlink.com 1.10,2013-01-12 20:34:00,
2013-01-12 15:49:00,69.0,64.0,30.02,ESE,105,1.0,3.0,83,0.00,,,0.04,weatherlink.com 1.10,2013-01-12 20:49:00,
2013-01-12 16:04:00,68.9,64.0,30.02,ESE,108,0.0,3.0,83,0.00,,,0.04,weatherlink.com 1.10,2013-01-12 21:04:00,
2013-01-12 16:19:00,69.2,64.0,30.02,ESE,110,0.0,0.0,83,0.00,,,0.04,weatherlink.com 1.10,2013-01-12 21:19:00,
2013-01-12 16:34:00,69.2,64.0,30.02,SSE,156,0.0,1.0,83,0.00,,,0.04,weatherlink.com 1.10,2013-01-12 21:34:00,
2013-01-12 16:49:00,68.9,64.0,30.02,SE,124,0.0,1.0,84,0.00,,,0.04,weatherlink.com 1.10,2013-01-12 21:49:00,
2013-01-12 17:04:00,68.5,64.0,30.02,ESE,122,0.0,1.0,84,0.00,,,0.04,weatherlink.com 1.10,2013-01-12 22:04:00,
2013-01-12 17:19:00,68.1,64.0,30.02,ESE,122,0.0,1.0,85,0.00,,,0.04,weatherlink.com 1.10,2013-01-12 22:19:00,
2013-01-12 17:34:00,67.6,63.0,30.02,ESE,122,0.0,0.0,86,0.00,,,0.04,weatherlink.com 1.10,2013-01-12 22:34:00,
2013-01-12 17:49:00,67.1,63.0,30.01,ESE,122,0.0,0.0,87,0.00,,,0.04,weatherlink.com 1.10,2013-01-12 22:49:00,
2013-01-12 18:04:00,66.4,63.0,30.00,ESE,122,0.0,0.0,89,0.00,,,0.04,weatherlink.com 1.10,2013-01-12 23:04:00,
2013-01-12 18:19:00,65.9,63.0,30.01,ESE,122,0.0,0.0,90,0.00,,,0.04,weatherlink.com 1.10,2013-01-12 23:19:00,
2013-01-12 18:34:00,65.5,63.0,30.00,ESE,122,0.0,0.0,90,0.00,,,0.04,weatherlink.com 1.10,2013-01-12 23:34:00,
2013-01-12 18:49:00,65.1,63.0,30.00,ESE,122,0.0,0.0,91,0.00,,,0.04,weatherlink.com 1.10,2013-01-12 23:49:00,
2013-01-12 19:04:00,64.7,62.0,30.00,ESE,122,0.0,0.0,92,0.00,,,0.04,weatherlink.com 1.10,2013-01-13 00:04:00,
2013-01-12 19:19:00,64.2,62.0,30.00,ESE,122,0.0,0.0,93,0.00,,,0.04,weatherlink.com 1.10,2013-01-13 00:19:00,
2013-01-12 19:34:00,64.2,62.0,30.00,ESE,122,0.0,0.0,92,0.00,,,0.04,weatherlink.com 1.10,2013-01-13 00:34:00,
2013-01-12 19:49:00,64.3,62.0,30.00,ESE,122,0.0,0.0,92,0.00,,,0.04,weatherlink.com 1.10,2013-01-13 00:49:00,
2013-01-12 20:04:00,64.3,62.0,30.00,ESE,114,1.0,2.0,91,0.00,,,0.04,weatherlink.com 1.10,2013-01-13 01:04:00,
2013-01-12 20:19:00,64.4,61.0,30.00,SE,129,0.0,1.0,89,0.00,,,0.04,weatherlink.com 1.10,2013-01-13 01:19:00,
2013-01-12 20:34:00,64.0,61.0,30.00,ESE,117,0.0,2.0,89,0.00,,,0.04,weatherlink.com 1.10,2013-01-13 01:34:00,
2013-01-12 20:49:00,64.5,61.0,29.99,SE,133,0.0,1.0,88,0.00,,,0.04,weatherlink.com 1.10,2013-01-13 01:49:00,
2013-01-12 21:04:00,64.4,61.0,29.99,ESE,118,0.0,1.0,88,0.00,,,0.04,weatherlink.com 1.10,2013-01-13 02:04:00,
2013-01-12 21:19:00,63.9,61.0,29.98,ESE,108,0.0,1.0,89,0.00,,,0.04,weatherlink.com 1.10,2013-01-13 02:19:00,
2013-01-12 21:34:00,63.4,61.0,29.99,ESE,110,0.0,1.0,90,0.00,,,0.04,weatherlink.com 1.10,2013-01-13 02:34:00,
2013-01-12 21:49:00,63.2,60.0,29.99,ESE,110,0.0,1.0,90,0.00,,,0.04,weatherlink.com 1.10,2013-01-13 02:49:00,
2013-01-12 22:04:00,63.0,60.0,29.99,ESE,113,0.0,0.0,91,0.00,,,0.04,weatherlink.com 1.10,2013-01-13 03:04:00,
2013-01-12 22:19:00,63.4,61.0,30.00,NW,304,0.0,1.0,90,0.00,,,0.04,weatherlink.com 1.10,2013-01-13 03:19:00,
2013-01-12 22:34:00,63.9,61.0,29.99,NW,304,0.0,0.0,89,0.00,,,0.04,weatherlink.com 1.10,2013-01-13 03:34:00,
2013-01-12 22:49:00,63.6,60.0,29.99,NW,304,0.0,0.0,89,0.00,,,0.04,weatherlink.com 1.10,2013-01-13 03:49:00,
2013-01-12 23:04:00,63.2,60.0,29.98,WNW,302,0.0,0.0,90,0.00,,,0.04,weatherlink.com 1.10,2013-01-13 04:04:00,
2013-01-12 23:19:00,62.5,60.0,29.98,WNW,302,0.0,0.0,91,0.00,,,0.04,weatherlink.com 1.10,2013-01-13 04:19:00,
2013-01-12 23:34:00,61.7,59.0,29.98,West,264,0.0,0.0,92,0.00,,,0.04,weatherlink.com 1.10,2013-01-13 04:34:00,
2013-01-12 23:49:00,61.5,59.0,29.98,West,264,0.0,0.0,92,0.00,,,0.04,weatherlink.com 1.10,2013-01-13 04:49:00,